Location: Fontevrault
(47.1823°N, 0.0493°E)
Time: 18:39:51
(UTC+00:00)

Cosmos 1459 Rocket - Pass Details

Date: 26 October 2021
Orbit: 936 x 1000 km, 83.0° (Epoch: 27 November)

Event Time Altitude Azimuth Distance (km) Brightness Sun altitude
Rises 19:01:37 0° 178° (S) 3,653 6.9 -22.5°
Reaches altitude 10° 19:04:08 10° 176° (S) 2,701 6.2 -22.9°
Maximum altitude 19:10:15 69° 95° (E) 1,024 3.8 -23.9°
Drops below altitude 10° 19:16:19 10° 13° (NNE) 2,679 6.2 -25.0°
Sets 19:18:49 0° 11° (NNE) 3,622 7.0 -25.4°
